TimeCDT,TemperatureF,Dew PointF,Humidity,Sea Level PressureIn,VisibilityMPH,Wind Direction,Wind SpeedMPH,Gust SpeedMPH,PrecipitationIn,Events,Conditions,WindDirDegrees,DateUTC
12:53 AM,46.0,37.0,71,30.13,10.0,NW,20.7,-,N/A,,Overcast,320,2012-10-04 05:53:00
1:26 AM,44.6,35.6,71,30.13,10.0,NNW,17.3,24.2,N/A,,Scattered Clouds,330,2012-10-04 06:26:00
1:46 AM,44.6,35.6,71,30.13,10.0,NNW,19.6,28.8,N/A,,Mostly Cloudy,330,2012-10-04 06:46:00
1:53 AM,44.1,35.1,71,30.13,10.0,NNW,24.2,32.2,N/A,,Mostly Cloudy,330,2012-10-04 06:53:00
2:00 AM,44.6,33.8,66,30.16,10.0,NW,21.9,32.2,N/A,,Scattered Clouds,320,2012-10-04 07:00:00
2:44 AM,42.8,33.8,70,30.15,10.0,NNW,23.0,29.9,N/A,,Mostly Cloudy,340,2012-10-04 07:44:00
2:53 AM,43.0,33.1,68,30.13,10.0,NNW,18.4,29.9,N/A,,Scattered Clouds,340,2012-10-04 07:53:00
3:53 AM,41.0,33.1,73,30.16,10.0,NW,15.0,28.8,N/A,,Clear,320,2012-10-04 08:53:00
4:53 AM,41.0,32.0,70,30.17,10.0,NNW,18.4,26.5,N/A,,Partly Cloudy,330,2012-10-04 09:53:00
5:53 AM,41.0,30.9,67,30.21,10.0,NNW,19.6,27.6,N/A,,Clear,330,2012-10-04 10:53:00
6:53 AM,39.0,30.9,73,30.25,10.0,NNW,19.6,23.0,N/A,,Clear,330,2012-10-04 11:53:00
7:53 AM,39.0,30.9,73,30.27,10.0,NNW,18.4,27.6,N/A,,Scattered Clouds,330,2012-10-04 12:53:00
8:01 AM,39.2,30.2,70,30.25,10.0,NNW,16.1,28.8,N/A,,Mostly Cloudy,330,2012-10-04 13:01:00
8:34 AM,39.2,30.2,70,30.27,10.0,NNW,24.2,38.0,N/A,,Scattered Clouds,330,2012-10-04 13:34:00
8:53 AM,41.0,30.0,65,30.30,10.0,NNW,23.0,32.2,N/A,,Scattered Clouds,340,2012-10-04 13:53:00
9:53 AM,44.1,28.9,55,30.31,10.0,NNW,21.9,27.6,N/A,,Clear,340,2012-10-04 14:53:00
10:53 AM,46.9,28.9,50,30.33,10.0,NNW,20.7,28.8,N/A,,Scattered Clouds,340,2012-10-04 15:53:00
11:53 AM,48.0,28.9,48,30.35,10.0,North,18.4,28.8,N/A,,Scattered Clouds,350,2012-10-04 16:53:00
12:53 PM,50.0,28.9,44,30.35,10.0,North,16.1,26.5,N/A,,Scattered Clouds,360,2012-10-04 17:53:00
1:53 PM,51.1,28.0,41,30.33,10.0,NNW,15.0,20.7,N/A,,Partly Cloudy,340,2012-10-04 18:53:00
2:53 PM,52.0,27.0,38,30.31,10.0,NNW,13.8,20.7,N/A,,Clear,340,2012-10-04 19:53:00
3:53 PM,54.0,27.0,35,30.31,10.0,North,13.8,-,N/A,,Clear,350,2012-10-04 20:53:00
4:53 PM,53.1,27.0,37,30.30,10.0,North,13.8,21.9,N/A,,Clear,350,2012-10-04 21:53:00
5:53 PM,50.0,27.0,41,30.31,10.0,North,11.5,-,N/A,,Clear,350,2012-10-04 22:53:00
6:53 PM,46.9,27.0,46,30.32,10.0,North,6.9,-,N/A,,Clear,360,2012-10-04 23:53:00
7:53 PM,43.0,27.0,53,30.34,10.0,North,6.9,-,N/A,,Clear,350,2012-10-05 00:53:00
8:53 PM,36.0,25.0,64,30.38,10.0,NW,5.8,-,N/A,,Clear,320,2012-10-05 01:53:00
9:53 PM,33.1,24.1,70,30.40,10.0,WNW,5.8,-,N/A,,Clear,300,2012-10-05 02:53:00
10:53 PM,30.9,24.1,76,30.40,10.0,WNW,3.5,-,N/A,,Clear,290,2012-10-05 03:53:00
11:53 PM,30.0,24.1,79,30.40,10.0,NNW,3.5,-,N/A,,Clear,340,2012-10-05 04:53:00